Woensdrecht, Netherlands

5:10 PM CET on February 25, 2018 (GMT +0100)
Woensdrecht Air Base

Weather History for EHWO - May, 2013

Change the Weather History Date:

Friday, May 10, 2013

  Actual Average Record
Temperature  
Mean Temperature 55 °F -  
Max Temperature 60 °F 64 °F 80 °F (2008)
Min Temperature 50 °F 47 °F 30 °F (2017)
Degree Days  
Heating Degree Days 10    
Growing Degree Days 5 (Base 50)    
Moisture  
Dew Point 44 °F    
Average Humidity 69    
Maximum Humidity 87    
Minimum Humidity 55    
Precipitation  
Precipitation 0.00 in - - ()
Sea Level Pressure  
Sea Level Pressure 29.88 in    
Wind  
Wind Speed 12 mph ()    
Max Wind Speed 21 mph    
Max Gust Speed 36 mph    
Visibility 6.2 miles    
Events      
Averages and records for this station are not official NWS values.
T = Trace of Precipitation, MM = Missing Value Source: Averaged Metar Reports

Daily Weather History Graph

Daily Weather History Graph

Search for Another Location

Airport or City:

Trip Planner

Search our weather history database for the weather conditions in past years. The results will help you decide how hot, cold, wet, or windy it might be!

Date:

Astronomy

May. 10, 2013 Rise Set
Actual Time 5:58 AM CEST 9:20 PM CEST
Civil Twilight 5:18 AM CEST 10:00 PM CEST
Nautical Twilight 4:25 AM CEST 10:54 PM CEST
Astronomical Twilight 3:12 AM CEST 12:09 AM CEST
Moon 6:12 AM CEST (5/10) 9:58 PM CEST (5/10)
Length of Visible Light 16h 42m
Length of Day
15h 21m
New Moon, 0% of the Moon is Illuminated
May 10
New Moon
May 18
First Quarter
May 25
Full
May 31
Last Quarter
Jun 8
New

Hourly Weather History & Observations

Time (CEST) Temp. Dew Point Humidity Pressure Visibility Wind Dir Wind Speed Gust Speed Precip Events Conditions
12:25 AM 53.6 °F 41.0 °F 62% 29.86 in 6.2 mi SW 10.4 mph - N/A   Partly Cloudy
12:55 AM 53.6 °F 41.0 °F 62% 29.83 in 6.2 mi SSW 6.9 mph - N/A   Mostly Cloudy
1:25 AM 53.6 °F 41.0 °F 62% 29.83 in 6.2 mi SSW 8.1 mph - N/A   Mostly Cloudy
1:55 AM 53.6 °F 41.0 °F 62% 29.83 in 6.2 mi SW 10.4 mph - N/A   Overcast
2:25 AM 53.6 °F 41.0 °F 62% 29.83 in 6.2 mi SW 10.4 mph - N/A   Mostly Cloudy
2:55 AM 53.6 °F 41.0 °F 62% 29.83 in 6.2 mi SW 11.5 mph - N/A   Overcast
3:25 AM 53.6 °F 41.0 °F 62% 29.83 in 6.2 mi SSW 13.8 mph - N/A   Overcast
3:55 AM 53.6 °F 41.0 °F 62% 29.83 in 6.2 mi SW 12.7 mph - N/A   Overcast
4:25 AM 53.6 °F 41.0 °F 62% 29.80 in 6.2 mi SW 13.8 mph - N/A   Overcast
4:55 AM 53.6 °F 41.0 °F 62% 29.80 in 6.2 mi SW 13.8 mph - N/A   Overcast
5:25 AM 53.6 °F 41.0 °F 62% 29.80 in 6.2 mi SW 11.5 mph - N/A   Overcast
5:55 AM 53.6 °F 42.8 °F 67% 29.80 in 6.2 mi SW 15.0 mph 26.5 mph N/A   Overcast
6:02 AM 51.8 °F 42.8 °F 71% 29.80 in 6.2 mi SW 13.8 mph - N/A   Overcast
6:06 AM 51.8 °F 42.8 °F 71% 29.80 in 6.2 mi SW 13.8 mph - N/A   Overcast
6:25 AM 51.8 °F 42.8 °F 71% 29.80 in 6.2 mi SW 15.0 mph - N/A   Overcast
6:55 AM 51.8 °F 44.6 °F 76% 29.83 in 6.2 mi SW 15.0 mph - N/A   Overcast
7:06 AM 51.8 °F 44.6 °F 76% 29.83 in 3.7 mi SW 11.5 mph - N/A   Haze
7:25 AM 50.0 °F 44.6 °F 82% 29.83 in 6.2 mi SW 13.8 mph 26.5 mph N/A   Light Drizzle
7:33 AM 50.0 °F 44.6 °F 82% 29.83 in 6.2 mi SW 13.8 mph - N/A   Overcast
7:37 AM 50.0 °F 44.6 °F 82% 29.83 in 6.2 mi SW 13.8 mph - N/A   Overcast
7:44 AM 50.0 °F 46.4 °F 87% 29.83 in 6.2 mi SW 12.7 mph - N/A   Mostly Cloudy
7:48 AM 50.0 °F 46.4 °F 87% 29.83 in 6.2 mi SW 13.8 mph - N/A   Mostly Cloudy
7:55 AM 50.0 °F 46.4 °F 87% 29.83 in 6.2 mi SW 12.7 mph - N/A   Mostly Cloudy
7:58 AM 51.8 °F 46.4 °F 82% 29.83 in 6.2 mi SW 11.5 mph - N/A   Overcast
8:03 AM 51.8 °F 46.4 °F 82% 29.83 in 6.2 mi SSW 12.7 mph - N/A   Overcast
8:07 AM 51.8 °F 46.4 °F 82% 29.83 in 6.2 mi SW 13.8 mph - N/A   Mostly Cloudy
8:17 AM 51.8 °F 46.4 °F 82% 29.83 in 6.2 mi SW 12.7 mph - N/A   Mostly Cloudy
8:25 AM 51.8 °F 46.4 °F 82% 29.83 in 6.2 mi SW 13.8 mph - N/A   Mostly Cloudy
8:29 AM 51.8 °F 46.4 °F 82% 29.83 in 6.2 mi SW 15.0 mph - N/A   Mostly Cloudy
8:50 AM 53.6 °F 46.4 °F 77% 29.86 in 6.2 mi SW 15.0 mph - N/A   Mostly Cloudy
8:55 AM 53.6 °F 46.4 °F 77% 29.86 in 6.2 mi SW 16.1 mph - N/A   Mostly Cloudy
9:25 AM 53.6 °F 46.4 °F 77% 29.86 in 6.2 mi SW 17.3 mph - N/A   Overcast
9:55 AM 53.6 °F 44.6 °F 72% 29.86 in 6.2 mi SW 17.3 mph - N/A   Overcast
10:25 AM 55.4 °F 44.6 °F 67% 29.89 in 6.2 mi SW 16.1 mph - N/A   Mostly Cloudy
10:26 AM 55.4 °F 44.6 °F 67% 29.89 in 6.2 mi SW 16.1 mph - N/A   Overcast
10:34 AM 55.4 °F 46.4 °F 72% 29.89 in 6.2 mi SW 15.0 mph - N/A   Overcast
10:38 AM 55.4 °F 44.6 °F 67% 29.89 in 6.2 mi SW 16.1 mph - N/A   Overcast
10:45 AM 55.4 °F 44.6 °F 67% 29.89 in 6.2 mi SW 17.3 mph - N/A   Overcast
10:55 AM 55.4 °F 46.4 °F 72% 29.89 in 6.2 mi SW 17.3 mph 28.8 mph N/A   Overcast
11:25 AM 57.2 °F 44.6 °F 63% 29.89 in 6.2 mi SW 19.6 mph - N/A   Overcast
11:55 AM 57.2 °F 44.6 °F 63% 29.89 in 6.2 mi SW 19.6 mph - N/A   Mostly Cloudy
12:25 PM 57.2 °F 44.6 °F 63% 29.89 in 6.2 mi SW 16.1 mph - N/A   Mostly Cloudy
12:55 PM 60.8 °F 46.4 °F 59% 29.92 in 6.2 mi SW 19.6 mph 35.7 mph N/A   Mostly Cloudy
1:25 PM 59.0 °F 44.6 °F 59% 29.92 in 6.2 mi SW 19.6 mph - N/A   Mostly Cloudy
1:55 PM 57.2 °F 46.4 °F 67% 29.92 in 6.2 mi SW 18.4 mph - N/A   Mostly Cloudy
2:25 PM 59.0 °F 44.6 °F 59% 29.92 in 6.2 mi SW 16.1 mph - N/A   Mostly Cloudy
2:55 PM 59.0 °F 46.4 °F 63% 29.92 in 6.2 mi SW 17.3 mph - N/A   Mostly Cloudy
3:25 PM 59.0 °F 44.6 °F 59% 29.92 in 6.2 mi WSW 20.7 mph - N/A   Mostly Cloudy
3:55 PM 57.2 °F 44.6 °F 63% 29.95 in 6.2 mi SW 17.3 mph 29.9 mph N/A   Overcast
4:25 PM 59.0 °F 46.4 °F 63% 29.95 in 6.2 mi WSW 18.4 mph - N/A   Mostly Cloudy
4:55 PM 57.2 °F 46.4 °F 67% 29.95 in 6.2 mi SW 17.3 mph 28.8 mph N/A   Overcast
5:25 PM 57.2 °F 44.6 °F 63% 29.95 in 6.2 mi SW 16.1 mph - N/A   Overcast
5:55 PM 57.2 °F 44.6 °F 63% 29.95 in 6.2 mi SW 16.1 mph - N/A   Overcast
6:25 PM 57.2 °F 44.6 °F 63% 29.95 in 6.2 mi WSW 17.3 mph - N/A   Mostly Cloudy
6:55 PM 57.2 °F 42.8 °F 59% 29.95 in 6.2 mi SW 12.7 mph - N/A   Mostly Cloudy
7:25 PM 57.2 °F 42.8 °F 59% 29.95 in 6.2 mi SW 13.8 mph - N/A   Overcast
7:55 PM 57.2 °F 42.8 °F 59% 29.95 in 6.2 mi SW 13.8 mph 26.5 mph N/A   Overcast
8:25 PM 57.2 °F 41.0 °F 55% 29.95 in 6.2 mi WSW 15.0 mph - N/A   Mostly Cloudy
8:55 PM 55.4 °F 41.0 °F 58% 29.98 in 6.2 mi WSW 11.5 mph - N/A   Partly Cloudy
9:25 PM 53.6 °F 41.0 °F 62% 29.98 in 6.2 mi SW 11.5 mph - N/A   Unknown
9:55 PM 53.6 °F 41.0 °F 62% 29.98 in 6.2 mi SW 9.2 mph - N/A   Unknown
10:25 PM 51.8 °F 41.0 °F 67% 29.98 in 6.2 mi SW 8.1 mph - N/A   Unknown
10:55 PM 51.8 °F 41.0 °F 67% 29.98 in 6.2 mi SSW 6.9 mph - N/A   Unknown
11:25 PM 51.8 °F 42.8 °F 71% 30.01 in 6.2 mi SSW 8.1 mph - N/A   Unknown
11:55 PM 51.8 °F 42.8 °F 71% 30.01 in 6.2 mi SSW 9.2 mph - N/A   Unknown